Observations for Trim Market St
| Time | AQI | Temp °C | Hum % | Pres Pa | CO μg/m³ | H₂S μg/m³ | NO μg/m³ | NO₂ μg/m³ | O₃ μg/m³ | SO₂ μg/m³ | PM1 μg/m³ | PM2.5 μg/m³ | PM10 μg/m³ |
|---|---|---|---|---|---|---|---|---|---|---|---|---|---|
| Friday 21 August 2026 | |||||||||||||
| 05:15 | 2 | 9.9 | 81 | 2,147,483,647 | 0.54 | 0 | 6.87 | 11.84 | 32.4 | 0 | 0.71 | 1.61 | 4.15 |
| 05:14 | 2 | 9.9 | 81 | 2,147,483,647 | 0.55 | 0 | 6.31 | 12.31 | 31.52 | 0 | 0.71 | 2.08 | 4.71 |
| 05:13 | 2 | 9.9 | 81 | 2,147,483,647 | 0.56 | 0 | 5.69 | 13.07 | 30.1 | 0 | 0 | 1.14 | 4.15 |
| 05:12 | 2 | 9.9 | 81 | 2,147,483,647 | 0.58 | 0 | 5.67 | 12.9 | 31.88 | 0 | 0 | 1.14 | 4.15 |
| 05:11 | 2 | 9.9 | 81 | 2,147,483,647 | 0.65 | 0 | 4.76 | 12.59 | 32.2 | 0 | 0 | 1.61 | 4.15 |
| 05:10 | 2 | 9.9 | 81 | 2,147,483,647 | 0.7 | 0 | 4.38 | 11.7 | 32.85 | 0 | 0.71 | 1.61 | 4.71 |
| 05:09 | 2 | 9.9 | 81 | 2,147,483,647 | 0.55 | 0 | 4.41 | 11.82 | 33.43 | 0 | 0.71 | 2.08 | 4.71 |
| 05:08 | 2 | 9.9 | 81 | 2,147,483,647 | 0.54 | 0 | 4.27 | 11.81 | 32.64 | 0 | 0.71 | 2.08 | 4.71 |
| 05:07 | 2 | 9.9 | 81 | 2,147,483,647 | 0.56 | 0 | 4.94 | 10.92 | 34.23 | 0 | 0.71 | 1.14 | 3.58 |
| 05:05 | 2 | 9.9 | 81 | 2,147,483,647 | 0.54 | 0 | 8.73 | 11.59 | 32.96 | 0 | 0 | 1.61 | 4.71 |
| 05:00 | 2 | 10 | 80 | 2,147,483,647 | 0.54 | 0 | 8.67 | 12.62 | 35.45 | 0 | 1.43 | 2.09 | 4.71 |
| 04:58 | 2 | 10 | 80 | 2,147,483,647 | 0.54 | 0 | 5.36 | 11.94 | 33.17 | 0 | 0 | 1.15 | 3.58 |
| 04:57 | 2 | 10 | 80 | 2,147,483,647 | 0.54 | 0 | 5.24 | 11.71 | 33.71 | 0 | 0 | 1.62 | 4.14 |
| 04:50 | 2 | 10 | 80 | 340 | 0.53 | 0 | 8.04 | 12.43 | 36.48 | 0 | 0 | 1.16 | 5.27 |
| 04:49 | 2 | 10 | 80 | 917 | 0.54 | 0 | 8.37 | 12.16 | 32.93 | 0 | 0.71 | 1.63 | 4.7 |
| 04:48 | 2 | 10 | 80 | 1,483 | 0.53 | 0 | 7.42 | 11.77 | 33.16 | 0 | 0 | 1.16 | 4.13 |
| 04:47 | 2 | 10 | 80 | 1,989 | 0.53 | 0 | 6.87 | 13.18 | 32.43 | 0 | 0.71 | 1.16 | 3.56 |
| 04:45 | 2 | 10.1 | 80 | 3,175 | 0.53 | 0 | 5.98 | 12.92 | 37.97 | 0 | 0.71 | 1.64 | 4.13 |
| 04:44 | 2 | 10.1 | 80 | 3,815 | 0.52 | 0 | 5.01 | 12.92 | 34.66 | 0 | 0.71 | 1.64 | 5.26 |
| 04:43 | 2 | 10 | 80 | 4,417 | 0.53 | 0 | 4.44 | 12.39 | 32.84 | 0 | 0.71 | 1.64 | 4.13 |